Location: Newark
(40.4667°N, 5.6000°W)
Time: 01:54:18
(UTC+00:00)

Transit 2A - Visible Passes

Search period start: 23 November 2019 00:00
Search period end: 03 December 2019 00:00
Orbit: 602 x 957 km, 66.7° (Epoch: 22 November)

Date Brightness Start Highest point End Pass type
(mag) Time Alt. Az. Time Alt. Az. Time Alt. Az.
25 Nov 7.7 18:56:59 10° N 18:57:45 14° N 18:57:45 14° N visible
26 Nov 7.3 18:23:19 10° N 18:25:03 16° NNE 18:25:03 16° NNE visible
26 Nov 8.5 20:05:29 10° NW 20:05:34 11° NW 20:05:34 11° NW visible
27 Nov 7.4 17:50:02 10° NNE 17:52:01 13° NE 17:52:32 13° NE visible
27 Nov 7.4 19:31:16 10° NNW 19:33:05 24° NNW 19:33:05 24° NNW visible
28 Nov 5.7 18:57:12 10° NNW 19:00:53 56° NNE 19:00:53 56° NNE visible
29 Nov 5.9 18:23:13 10° NNW 18:27:23 42° NE 18:29:12 28° ESE visible
29 Nov 8.1 20:07:05 10° WNW 20:09:49 19° WSW 20:09:49 19° WSW visible
30 Nov 6.4 17:49:22 10° N 17:53:11 28° NE 17:57:08 10° ESE visible
30 Nov 7.4 19:32:24 10° NW 19:36:14 29° WSW 19:39:24 14° SSW visible
01 Dec 6.6 18:57:59 10° NW 19:02:13 46° WSW 19:06:41 10° S visible
02 Dec 5.8 18:23:45 10° NNW 18:28:08 74° WSW 18:32:49 10° SSE visible
